Regional Weather Roundup
Issued by NWS

Home | Current Version | Previous Version | Graphics & Text | Print | Product List | Glossary On
Versions: 1 2 3 4 5 6 7 8 9 10 11 12 13 14 15 16 17 18 19 20 21 22 23 24 25 26 27 28 29 30 31 32 33 34 35 36 37 38 39 40 41 42 43 44 45 46 47 48 49 50
038
ASUS45 KCYS 090010
RWRWY

WYOMING REGIONAL WEATHER ROUNDUP
NATIONAL WEATHER SERVICE CHEYENNE WY
500 PM MST THU DEC 08 2016

NOTE:  "FAIR" INDICATES FEW OR NO CLOUDS BELOW 12,000 FEET
WITH NO SIGNIFICANT WEATHER AND/OR OBSTRUCTIONS TO VISIBILITY.

WYZ001-090100-
YELLOWSTONE NATIONAL PARK

CITY           SKY/WX    TMP DP  RH WIND       PRES   REMARKS
LK YELLOWSTONE   N/A      4  -5  66 NW3       30.02F
6HR MIN TEMP:   4; 6HR MAX TEMP:  10;

W YELLOWSTONE  NOT AVBL

$$
WYZ002>013-054>058-071-098>099-090100-
NORTHERN WYOMING

CITY           SKY/WX    TMP DP  RH WIND       PRES   REMARKS
JACKSON        CLOUDY     1   0  92 CALM      30.12F
CODY           FAIR      -3  -8  79 S7        30.19F WCI -16
GREYBULL       FAIR       9  -1  64 S3        30.26F
6HR MIN TEMP:   3; 6HR MAX TEMP:  12;

WORLAND        FAIR       6   0  76 CALM      30.24F
6HR MIN TEMP:   2; 6HR MAX TEMP:  12;

SHERIDAN       FAIR      -3  -9  75 CALM      30.31F
6HR MIN TEMP:  -3; 6HR MAX TEMP:   8;

BUFFALO        FAIR       2  -5  72 S7        30.23F WCI -11
6HR MIN TEMP:   1; 6HR MAX TEMP:   8;

GILLETTE       FAIR      -3  -7  82 E5        30.30F WCI -13
6HR MIN TEMP:  -3; 6HR MAX TEMP:   8;

HULETT         FAIR       3  -4  72 CALM      30.35F
NEWCASTLE      FAIR       5  -6  61 CALM      30.37F

$$
WYZ014>020-022>026-101>103-090100-
CENTRAL WYOMING

CITY           SKY/WX    TMP DP  RH WIND       PRES   REMARKS
BIG PINEY      LGT SNOW   8   3  80 CALM      30.13S
6HR MIN TEMP:   0; 6HR MAX TEMP:  11; 6HR PCP: TRACE;

PINEDALE       CLOUDY    10   1  67 N6        30.13S WCI   1
DUBOIS         CLOUDY     7   0  72 S8        30.01S WCI  -6
LANDER         FAIR       6  -2  69 SW3       30.14F
6HR MIN TEMP:   4; 6HR MAX TEMP:  11;

RIVERTON       FAIR       7  -1  70 E5        30.16F WCI  -2
6HR MIN TEMP:   5; 6HR MAX TEMP:  13;

CASPER         FAIR      -8 -12  83 E6        30.21F WCI -21
6HR MIN TEMP:  -9; 6HR MAX TEMP:   0;

DOUGLAS        FAIR      -4  -8  83 CALM      30.27F
6HR MIN TEMP:  -7; 6HR MAX TEMP:   1;


$$
WYZ021-027>030-104>119-090100-
SOUTHERN WYOMING

CITY           SKY/WX    TMP DP  RH WIND       PRES   REMARKS
EVANSTON       LGT SNOW   9   3  77 E12       30.07S WCI  -6
6HR MIN TEMP:   9; 6HR MAX TEMP:  11; 6HR PCP: TRACE;

FORT BRIDGER   LGT SNOW   7   3  85 CALM      30.14S
ROCK SPRINGS   LGT SNOW   9   5  84 CALM      30.12S FOG
6HR MIN TEMP:   1; 6HR MAX TEMP:  10; 6HR PCP: TRACE;

DIXON          LGT SNOW  21  16  81 CALM      30.20F
RAWLINS        CLOUDY    19   4  51 VRB7      30.12F WCI  10
6HR MIN TEMP:   3; 6HR MAX TEMP:  19;

SARATOGA       CLOUDY    21   9  58 CALM      30.13S
LARAMIE        CLOUDY    11  -2  56 S9        30.09F WCI  -2
6HR MIN TEMP:   9; 6HR MAX TEMP:  20;

CHEYENNE       FAIR       4   0  83 S12       30.20F WCI -12
6HR MIN TEMP:   4; 6HR MAX TEMP:  10;

TORRINGTON     FAIR       9  -1  64 E9        30.34F WCI  -4
6HR MIN TEMP:   2; 6HR MAX TEMP:  16;

PINE BLUFFS    FAIR       5   1  85 S7        30.31S WCI  -7

$$




USA.gov is the U.S. government's official web portal to all federal, state and local government web resources and services.